[[{"header":{"parameterUnit":"m.s-1","parameterCategory":1,"la1":30.2992,"la2":30.254,"lo1":-89.0895,"lo2":-89.0443,"dy":0.0025,"dx":0.0025,"nx":19,"ny":19,"refTime":"2026-05-20T21:00:00:Z","depth":0,"parameterNumber":2,"parameterNumberName":"U-component_of_WINDS"},"data":[0,0,0,-2.0787,-2.0789,-2.0893,-2.0894,-2.1031,-2.1032,0,0,0,0,0,0,0,0,0,0,0,-2.0757,-2.0758,-2.0786,-2.0789,-2.0893,-2.0894,-2.1031,-2.1032,0,0,0,0,0,0,0,0,0,0,0,-2.0756,-2.0757,-2.0758,-2.0789,-2.0893,-2.0894,-2.103,-2.0951,0,0,0,0,0,0,0,0,0,0,-2.0849,-2.0821,-2.0757,-2.0759,-2.079,-2.0893,-2.0894,-2.0947,-2.0956,-2.0985,0,-2.101,0,-2.1023,-2.1041,-2.1042,0,0,0,-2.0789,-2.0814,-2.0841,-2.0759,-2.0791,-2.0893,-2.0846,-2.0952,-2.0962,-2.0996,-2.1012,-2.1017,-2.1025,-2.1042,-2.1043,-2.1211,-2.1212,0,0,-2.0783,-2.0776,-2.0834,-2.0848,-2.0831,-2.0843,-2.0849,-2.0958,-2.0974,-2.1012,-2.102,-2.1028,-2.1043,-2.1044,-2.121,-2.1211,0,0,0,-2.0767,-2.0772,-2.0797,-2.0842,-2.0861,-2.0846,-2.0853,-2.0969,-2.0978,-2.1021,-2.1029,-2.1044,-2.1046,-2.121,-2.1211,-2.1244,0,0,0,-2.0763,-2.0762,-2.0794,-2.0791,-2.0859,-2.0916,-2.0863,-2.097,-2.0983,-2.1029,-2.1044,-2.1047,-2.1209,-2.121,-2.1241,-2.126,0,0,0,-2.075,-2.0761,-2.0776,-2.079,-2.0835,-2.0914,-2.0929,-2.0973,-2.0988,-2.1042,-2.1047,-2.1208,-2.121,-2.1238,-2.1256,-2.1303,0,0,0,-2.0733,-2.0804,-2.0777,-2.0859,-2.0834,-2.0934,-2.0929,-2.1004,-2.1054,-2.1045,-2.1209,-2.1211,-2.1237,-2.1253,-2.13,-2.134,-2.1356,0,0,-2.0818,-2.0814,-2.0863,-2.0842,-2.0944,-2.0919,-2.1027,-2.108,-2.1092,-2.1171,-2.1175,-2.1242,-2.1256,-2.1302,-2.145,-2.1463,0,0,0,-2.0888,-2.0923,-2.0952,-2.0999,-2.1041,-2.1079,-2.1117,-2.1137,-2.1204,-2.1131,-2.1272,-2.128,-2.1308,-2.1327,-2.1338,-2.1362,-2.1219,-2.1219,-2.1219,-2.0998,-2.1009,-2.1092,-2.1116,-2.1163,-2.1201,-2.124,-2.1274,-2.1272,-2.1305,-2.1328,-2.1417,-2.144,-2.1448,-2.1473,-2.1351,-2.1351,-2.1351,-2.1352,-2.1123,-2.1175,-2.1172,-2.125,-2.1263,-2.133,-2.1371,-2.1367,-2.1432,-2.14,-2.1425,-2.1388,-2.1461,-2.1484,-2.1354,-2.1354,-2.1353,-2.1353,-2.1353,-2.1196,-2.1223,-2.1246,-2.1317,-2.1371,-2.1395,-2.1457,-2.1467,-2.1476,-2.1501,-2.1527,-2.1526,-2.1527,-2.1513,-2.1513,-2.1513,-2.1514,-2.1514,-2.1514,-2.1262,-2.1288,-2.1338,-2.1391,-2.1423,-2.1468,-2.1509,-2.1542,-2.1581,-2.1583,-2.1583,-2.1578,-2.1466,-2.1438,-2.1519,-2.1518,-2.1517,-2.1517,-2.1517,-2.1385,-2.1359,-2.1437,-2.147,-2.1533,-2.1587,-2.1599,-2.1665,-2.1694,-2.1725,-2.1716,-2.1632,-2.1627,-2.1619,-2.1595,-2.1713,-2.1713,-2.1713,-2.1713,-2.1446,-2.1445,-2.1528,-2.158,-2.1632,-2.1652,-2.1742,-2.1776,-2.1807,-2.1826,-2.1811,-2.178,-2.1771,-2.1773,-2.1761,-2.1739,-2.189,-2.189,-2.1891,-2.1522,-2.1527,-2.1601,-2.163,-2.1681,-2.1724,-2.181,-2.1871,-2.1901,-2.1898,-2.1841,-2.1834,-2.1785,-2.1769,-2.1763,-2.1744,-2.1704,0,0]},{"header":{"parameterUnit":"m.s-1","parameterCategory":1,"la1":30.2992,"la2":30.254,"lo1":-89.0895,"lo2":-89.0443,"dy":0.0025,"dx":0.0025,"nx":19,"ny":19,"refTime":"2026-05-20T21:00:00:Z","depth":0,"parameterNumber":3,"parameterNumberName":"V-component_of_WINDS"},"data":[0,0,0,4.5488,4.5489,4.551,4.551,4.5551,4.5552,0,0,0,0,0,0,0,0,0,0,0,4.549,4.5491,4.5488,4.5489,4.551,4.551,4.5551,4.5552,0,0,0,0,0,0,0,0,0,0,0,4.549,4.5491,4.5491,4.5489,4.551,4.551,4.5551,4.553,0,0,0,0,0,0,0,0,0,0,4.5506,4.5517,4.5491,4.5491,4.5489,4.551,4.551,4.5529,4.5531,4.5547,0,4.5564,0,4.5559,4.5555,4.5555,0,0,0,4.5482,4.5515,4.5513,4.5492,4.5489,4.551,4.5499,4.553,4.5533,4.5551,4.5565,4.5566,4.5559,4.5556,4.5556,4.5671,4.5671,0,0,4.5481,4.5499,4.5511,4.5516,4.5514,4.5498,4.5499,4.5531,4.5548,4.5565,4.5567,4.556,4.5556,4.5556,4.567,4.5671,0,0,0,4.5482,4.5498,4.5495,4.5514,4.5517,4.5499,4.55,4.5546,4.5544,4.5567,4.556,4.5556,4.5557,4.5669,4.567,4.5729,0,0,0,4.5481,4.5499,4.5495,4.5506,4.5517,4.5532,4.5515,4.5542,4.5545,4.556,4.5556,4.5557,4.5668,4.567,4.5726,4.5755,0,0,0,4.5486,4.5499,4.5505,4.5507,4.5517,4.5531,4.553,4.5542,4.5541,4.5555,4.5558,4.5667,4.5669,4.5722,4.5749,4.579,0,0,0,4.5496,4.5558,4.5507,4.5573,4.5517,4.5568,4.553,4.5567,4.5586,4.5557,4.5668,4.567,4.5721,4.5746,4.5787,4.5828,4.5847,0,0,4.5584,4.5569,4.5607,4.5561,4.5626,4.5563,4.5635,4.5636,4.5621,4.5655,4.5657,4.5727,4.5749,4.5789,4.5945,4.596,0,0,0,4.564,4.5668,4.5681,4.57,4.5702,4.5705,4.5693,4.5693,4.5721,4.5642,4.5752,4.5764,4.5787,4.5806,4.5819,4.5838,4.5679,4.5679,4.5679,4.5792,4.5768,4.5828,4.5807,4.5826,4.5812,4.5825,4.5822,4.5794,4.582,4.583,4.5928,4.595,4.596,4.598,4.585,4.585,4.585,4.585,4.5918,4.5953,4.5912,4.5956,4.5931,4.5967,4.5955,4.5933,4.5963,4.5918,4.5937,4.5891,4.5977,4.5993,4.5855,4.5854,4.5853,4.5853,4.5853,4.6015,4.6028,4.6026,4.605,4.6071,4.6047,4.6077,4.6053,4.6031,4.6049,4.6057,4.6056,4.6053,4.6055,4.6055,4.6055,4.6056,4.6056,4.6056,4.6117,4.6113,4.6142,4.6147,4.6155,4.6163,4.6148,4.6156,4.6158,4.6138,4.6138,4.6107,4.599,4.5961,4.6061,4.606,4.606,4.6059,4.6059,4.6256,4.622,4.6264,4.6273,4.6276,4.6298,4.6266,4.6283,4.6285,4.6301,4.6265,4.6183,4.6166,4.6155,4.6132,4.627,4.627,4.627,4.627,4.6338,4.6327,4.6366,4.638,4.6391,4.6366,4.6416,4.6404,4.6387,4.6387,4.6363,4.6329,4.632,4.6308,4.6295,4.6272,4.6443,4.6443,4.6443,4.6422,4.641,4.6458,4.644,4.644,4.6441,4.6487,4.6505,4.6478,4.645,4.6386,4.6379,4.6324,4.6307,4.628,4.6259,4.6217,0,0]}]]